Terminal Aerodrome Forecast
Issued by NWS Aberdeen, SD

Home | Current Version | Previous Version | Text Only | Print | Product List | Glossary On
Versions: 1 2 3 4 5 6 7 8 9 10 11 12 13 14 15 16 17 18 19 20 21 22 23 24 25 26 27 28 29 30 31 32 33 34 35 36 37 38 39 40 41
000
FTAK31 PAFA 232333
TAFABR
TAF
PABR 232333Z 2400/2424 27008KT P6SM BKN013 OVC029
     FM240400 21008KT 6SM -SN BR SCT007 BKN013 OVC035
     FM241600 20008KT P6SM -SHSN FEW007 SCT013 OVC035=

USA.gov is the U.S. government's official web portal to all federal, state and local government web resources and services.